| time (UTC) | temp F | wind direction | speed MPH | gust MPH | rain 1hr in | rain 24hr in | rain mn in | humidity % | barometer mb |
| 20260506164749 | 76 | 306 | 3.0 | 6.0 | 0.00 | 0.00 | 0.00 | 39 | 1012.9 |
| 20260506164246 | 75 | 68 | 1.0 | 8.0 | 0.00 | 0.00 | 0.00 | 40 | 1013.0 |
| 20260506163738 | 74 | 293 | 3.0 | 5.0 | 0.00 | 0.00 | 0.00 | 36 | 1013.0 |
| 20260506163232 | 74 | 248 | 2.0 | 4.0 | 0.00 | 0.00 | 0.00 | 40 | 1013.3 |
| 20260506162728 | 73 | 309 | 2.0 | 5.0 | 0.00 | 0.00 | 0.00 | 40 | 1012.9 |
| 20260506162226 | 73 | 291 | 2.0 | 4.0 | 0.00 | 0.00 | 0.00 | 40 | 1013.2 |
| 20260506161718 | 72 | 316 | 3.0 | 4.0 | 0.00 | 0.00 | 0.00 | 42 | 1013.0 |
| 20260506161215 | 72 | 332 | 2.0 | 6.0 | 0.00 | 0.00 | 0.00 | 43 | 1013.3 |
| 20260506160712 | 72 | 242 | 2.0 | 6.0 | 0.00 | 0.00 | 0.00 | 43 | 1013.2 |
| 20260506160208 | 71 | 293 | 3.0 | 6.0 | 0.00 | 0.00 | 0.00 | 43 | 1013.4 |
| 20260506155707 | 71 | 352 | 2.0 | 9.0 | 0.00 | 0.00 | 0.00 | 45 | 1013.4 |
| 20260506155204 | 69 | 300 | 1.0 | 4.0 | 0.00 | 0.00 | 0.00 | 45 | 1013.6 |
| 20260506153306 | 68 | 263 | 2.0 | 5.0 | 0.00 | 0.00 | 0.00 | 44 | 1013.5 |
| 20260506152803 | 68 | 262 | 2.0 | 3.0 | 0.00 | 0.00 | 0.00 | 46 | 1013.3 |
| 20260506152300 | 67 | 333 | 0.0 | 4.0 | 0.00 | 0.00 | 0.00 | 47 | 1013.5 |
| 20260506151759 | 66 | 275 | 2.0 | 4.0 | 0.00 | 0.00 | 0.00 | 46 | 1013.6 |
| 20260506151255 | 66 | 255 | 4.0 | 5.0 | 0.00 | 0.00 | 0.00 | 46 | 1013.7 |
| 20260506150752 | 65 | 260 | 3.0 | 5.0 | 0.00 | 0.00 | 0.00 | 48 | 1013.6 |
| 20260506150249 | 64 | 251 | 3.0 | 4.0 | 0.00 | 0.00 | 0.00 | 49 | 1013.6 |
| 20260506145746 | 63 | 261 | 2.0 | 3.0 | 0.00 | 0.00 | 0.00 | 49 | 1013.6 |
| 20260506145242 | 63 | 268 | 2.0 | 4.0 | 0.00 | 0.00 | 0.00 | 49 | 1013.8 |
| 20260506144740 | 62 | 317 | 2.0 | 4.0 | 0.00 | 0.00 | 0.00 | 49 | 1013.7 |
| 20260506144237 | 62 | 286 | 3.0 | 4.0 | 0.00 | 0.00 | 0.00 | 50 | 1013.8 |
| 20260506143734 | 62 | 155 | 3.0 | 7.0 | 0.00 | 0.00 | 0.00 | 50 | 1013.9 |
| 20260506143231 | 61 | 347 | 1.0 | 11.0 | 0.00 | 0.00 | 0.00 | 49 | 1013.8 |
| 20260506142730 | 61 | 340 | 2.0 | 6.0 | 0.00 | 0.00 | 0.00 | 49 | 1013.8 |
| 20260506142228 | 61 | 320 | 6.0 | 8.0 | 0.00 | 0.00 | 0.00 | 50 | 1014.0 |
| 20260506141725 | 61 | 32 | 5.0 | 7.0 | 0.00 | 0.00 | 0.00 | 52 | 1013.8 |
| 20260506141224 | 61 | 229 | 6.0 | 13.0 | 0.00 | 0.00 | 0.00 | 49 | 1013.8 |
| 20260506140721 | 61 | 7 | 4.0 | 7.0 | 0.00 | 0.00 | 0.00 | 52 | 1013.7 |
| 20260506140218 | 61 | 354 | 2.0 | 4.0 | 0.00 | 0.00 | 0.00 | 51 | 1014.0 |
| 20260506135714 | 61 | 296 | 0.0 | 8.0 | 0.00 | 0.00 | 0.00 | 49 | 1013.7 |
| 20260506135211 | 61 | 25 | 3.0 | 8.0 | 0.00 | 0.00 | 0.00 | 49 | 1013.7 |
| 20260506134708 | 61 | 289 | 2.0 | 8.0 | 0.00 | 0.00 | 0.00 | 50 | 1013.8 |
| 20260506134204 | 60 | 0 | 2.0 | 7.0 | 0.00 | 0.00 | 0.00 | 51 | 1013.9 |
| 20260506133701 | 59 | 35 | 4.0 | 8.0 | 0.00 | 0.00 | 0.00 | 52 | 1013.8 |
| 20260506133157 | 59 | 69 | 2.0 | 4.0 | 0.00 | 0.00 | 0.00 | 52 | 1013.9 |
| 20260506132655 | 59 | 321 | 2.0 | 4.0 | 0.00 | 0.00 | 0.00 | 55 | 1013.7 |
| 20260506132152 | 60 | 263 | 0.0 | 7.0 | 0.00 | 0.00 | 0.00 | 51 | 1013.9 |
| 20260506131649 | 59 | 330 | 2.0 | 7.0 | 0.00 | 0.00 | 0.00 | 51 | 1013.6 |
| 20260506131145 | 57 | 351 | 3.0 | 5.0 | 0.00 | 0.00 | 0.00 | 56 | 1013.6 |
| 20260506130642 | 57 | 356 | 2.0 | 4.0 | 0.00 | 0.00 | 0.00 | 58 | 1013.8 |
| 20260506130140 | 57 | 5 | 2.0 | 4.0 | 0.00 | 0.00 | 0.00 | 57 | 1013.8 |
| 20260506125638 | 57 | 353 | 1.0 | 6.0 | 0.00 | 0.00 | 0.00 | 57 | 1013.7 |
| 20260506125135 | 56 | 59 | 3.0 | 4.0 | 0.00 | 0.00 | 0.00 | 59 | 1014.0 |
| 20260506124633 | 56 | 11 | 1.0 | 4.0 | 0.00 | 0.00 | 0.00 | 60 | 1013.7 |
| 20260506124130 | 56 | 4 | 2.0 | 4.0 | 0.00 | 0.00 | 0.00 | 59 | 1014.0 |
| 20260506123628 | 55 | 57 | 3.0 | 5.0 | 0.00 | 0.00 | 0.00 | 59 | 1013.9 |
| 20260506123127 | 55 | 40 | 3.0 | 4.0 | 0.00 | 0.00 | 0.00 | 60 | 1013.6 |
| 20260506122623 | 55 | 22 | 2.0 | 3.0 | 0.00 | 0.00 | 0.00 | 60 | 1013.7 |
| 20260506122121 | 55 | 40 | 2.0 | 4.0 | 0.00 | 0.00 | 0.00 | 60 | 1013.6 |
| 20260506121618 | 55 | 23 | 3.0 | 4.0 | 0.00 | 0.00 | 0.00 | 61 | 1013.7 |
| 20260506121114 | 55 | 10 | 2.0 | 3.0 | 0.00 | 0.00 | 0.00 | 61 | 1013.7 |
| 20260506120613 | 55 | 43 | 2.0 | 3.0 | 0.00 | 0.00 | 0.00 | 61 | 1013.7 |
| 20260506120110 | 55 | 37 | 3.0 | 5.0 | 0.00 | 0.00 | 0.00 | 61 | 1013.7 |
| 20260506115608 | 54 | 9 | 1.0 | 3.0 | 0.00 | 0.00 | 0.00 | 62 | 1013.8 |
| 20260506115106 | 54 | 23 | 2.0 | 3.0 | 0.00 | 0.00 | 0.00 | 62 | 1013.8 |
| 20260506114603 | 54 | 29 | 2.0 | 3.0 | 0.00 | 0.00 | 0.00 | 62 | 1013.6 |
| 20260506114101 | 54 | 51 | 1.0 | 4.0 | 0.00 | 0.00 | 0.00 | 62 | 1013.6 |
| 20260506113558 | 54 | 51 | 4.0 | 6.0 | 0.00 | 0.00 | 0.00 | 61 | 1013.5 |
| 20260506113055 | 53 | 10 | 2.0 | 3.0 | 0.00 | 0.00 | 0.00 | 65 | 1013.6 |
| 20260506112552 | 53 | 22 | 2.0 | 3.0 | 0.00 | 0.00 | 0.00 | 65 | 1013.6 |
| 20260506112049 | 53 | 38 | 0.0 | 2.0 | 0.00 | 0.00 | 0.00 | 65 | 1013.5 |
| 20260506111547 | 53 | 44 | 0.0 | 3.0 | 0.00 | 0.00 | 0.00 | 65 | 1013.6 |
| 20260506111044 | 53 | 67 | 0.0 | 2.0 | 0.00 | 0.00 | 0.00 | 64 | 1013.3 |
| 20260506110542 | 53 | 37 | 0.0 | 2.0 | 0.00 | 0.00 | 0.00 | 64 | 1013.3 |
| 20260506110039 | 53 | 31 | 1.0 | 2.0 | 0.00 | 0.00 | 0.00 | 63 | 1013.4 |
| 20260506105535 | 54 | 61 | 2.0 | 2.0 | 0.00 | 0.00 | 0.00 | 64 | 1013.6 |
| 20260506105032 | 54 | 38 | 1.0 | 2.0 | 0.00 | 0.00 | 0.00 | 64 | 1013.3 |
| 20260506104530 | 54 | 19 | 0.0 | 2.0 | 0.00 | 0.00 | 0.00 | 63 | 1013.4 |
| 20260506104028 | 55 | 41 | 1.0 | 2.0 | 0.00 | 0.00 | 0.00 | 61 | 1013.5 |
| 20260506103525 | 55 | 43 | 3.0 | 4.0 | 0.00 | 0.00 | 0.00 | 61 | 1013.5 |
| 20260506103021 | 55 | 20 | 4.0 | 4.0 | 0.00 | 0.00 | 0.00 | 61 | 1013.5 |
| 20260506102520 | 55 | 44 | 3.0 | 4.0 | 0.00 | 0.00 | 0.00 | 60 | 1013.5 |
| 20260506102017 | 55 | 344 | 2.0 | 5.0 | 0.00 | 0.00 | 0.00 | 59 | 1013.5 |
| 20260506101513 | 54 | 11 | 2.0 | 3.0 | 0.00 | 0.00 | 0.00 | 64 | 1013.4 |
| 20260506101011 | 54 | 26 | 0.0 | 2.0 | 0.00 | 0.00 | 0.00 | 66 | 1013.3 |
| 20260506100509 | 54 | 47 | 1.0 | 2.0 | 0.00 | 0.00 | 0.00 | 64 | 1013.3 |
| 20260506100007 | 55 | 138 | 1.0 | 2.0 | 0.00 | 0.00 | 0.00 | 63 | 1013.4 |
| 20260506095505 | 56 | 64 | 1.0 | 2.0 | 0.00 | 0.00 | 0.00 | 60 | 1013.5 |
| 20260506095001 | 56 | 41 | 4.0 | 4.0 | 0.00 | 0.00 | 0.00 | 61 | 1013.4 |
| 20260506094459 | 56 | 53 | 3.0 | 6.0 | 0.00 | 0.00 | 0.00 | 59 | 1013.3 |
| 20260506093956 | 57 | 37 | 2.0 | 4.0 | 0.00 | 0.00 | 0.00 | 58 | 1013.4 |
| 20260506093455 | 57 | 25 | 4.0 | 4.0 | 0.00 | 0.00 | 0.00 | 57 | 1013.3 |
| 20260506092952 | 57 | 12 | 4.0 | 4.0 | 0.00 | 0.00 | 0.00 | 58 | 1013.5 |
| 20260506092450 | 57 | 13 | 3.0 | 5.0 | 0.00 | 0.00 | 0.00 | 57 | 1013.4 |
| 20260506091946 | 58 | 44 | 3.0 | 5.0 | 0.00 | 0.00 | 0.00 | 57 | 1013.4 |
| 20260506091445 | 58 | 12 | 2.0 | 4.0 | 0.00 | 0.00 | 0.00 | 55 | 1013.2 |
| 20260506090942 | 58 | 41 | 3.0 | 4.0 | 0.00 | 0.00 | 0.00 | 56 | 1013.4 |
| 20260506090440 | 58 | 16 | 4.0 | 6.0 | 0.00 | 0.00 | 0.00 | 56 | 1013.3 |
| 20260506085935 | 58 | 41 | 3.0 | 9.0 | 0.00 | 0.00 | 0.00 | 58 | 1013.3 |
| 20260506085432 | 57 | 29 | 2.0 | 6.0 | 0.00 | 0.00 | 0.00 | 58 | 1013.0 |
| 20260506084929 | 58 | 19 | 4.0 | 5.0 | 0.00 | 0.00 | 0.00 | 58 | 1013.3 |
| 20260506084426 | 58 | 14 | 4.0 | 4.0 | 0.00 | 0.00 | 0.00 | 56 | 1013.0 |
| 20260506083922 | 59 | 50 | 3.0 | 6.0 | 0.00 | 0.00 | 0.00 | 55 | 1013.3 |
| 20260506083419 | 59 | 5 | 3.0 | 6.0 | 0.00 | 0.00 | 0.00 | 55 | 1013.2 |
| 20260506082916 | 59 | 17 | 3.0 | 5.0 | 0.00 | 0.00 | 0.00 | 55 | 1012.9 |
| 20260506082414 | 60 | 19 | 3.0 | 4.0 | 0.00 | 0.00 | 0.00 | 54 | 1013.3 |
| 20260506081909 | 60 | 1 | 3.0 | 4.0 | 0.00 | 0.00 | 0.00 | 53 | 1013.2 |
| 20260506081408 | 60 | 14 | 3.0 | 4.0 | 0.00 | 0.00 | 0.00 | 53 | 1012.8 |
| 20260506080905 | 61 | 0 | 4.0 | 4.0 | 0.00 | 0.00 | 0.00 | 53 | 1013.3 |
| 20260506080402 | 61 | 351 | 2.0 | 6.0 | 0.00 | 0.00 | 0.00 | 52 | 1013.0 |
| 20260506073345 | 60 | 357 | 2.0 | 4.0 | 0.00 | 0.00 | 0.00 | 54 | 1012.8 |
| 20260506072842 | 61 | 349 | 2.0 | 3.0 | 0.00 | 0.00 | 0.00 | 53 | 1012.8 |
| 20260506072340 | 61 | 27 | 4.0 | 6.0 | 0.00 | 0.00 | 0.00 | 52 | 1012.9 |
| 20260506071837 | 62 | 12 | 3.0 | 4.0 | 0.00 | 0.00 | 0.00 | 52 | 1012.8 |
| 20260506071335 | 63 | 249 | 5.0 | 7.0 | 0.00 | 0.00 | 0.00 | 49 | 1012.7 |
| 20260506070832 | 63 | 307 | 4.0 | 6.0 | 0.00 | 0.00 | 0.00 | 50 | 1012.6 |
| 20260506070329 | 63 | 357 | 2.0 | 5.0 | 0.00 | 0.00 | 0.00 | 50 | 1013.0 |
| 20260506062306 | 65 | 15 | 2.0 | 5.0 | 0.00 | 0.00 | 0.00 | 47 | 1012.6 |
| 20260506061802 | 67 | 180 | 2.0 | 5.0 | 0.00 | 0.00 | 0.00 | 45 | 1012.5 |
| 20260506061259 | 67 | 330 | 4.0 | 6.0 | 0.00 | 0.00 | 0.00 | 46 | 1012.4 |
| 20260506060757 | 67 | 14 | 1.0 | 8.0 | 0.00 | 0.00 | 0.00 | 45 | 1012.3 |
| 20260506060255 | 66 | 350 | 2.0 | 6.0 | 0.00 | 0.00 | 0.00 | 47 | 1012.5 |
| 20260506051226 | 65 | 346 | 2.0 | 4.0 | 0.00 | 0.00 | 0.00 | 50 | 1012.0 |
| 20260506050724 | 65 | 341 | 0.0 | 4.0 | 0.00 | 0.00 | 0.00 | 50 | 1012.2 |
| 20260506050221 | 65 | 259 | 3.0 | 4.0 | 0.00 | 0.00 | 0.00 | 49 | 1012.1 |
| 20260506044712 | 66 | 348 | 0.0 | 3.0 | 0.00 | 0.00 | 0.00 | 47 | 1012.3 |
| 20260506044209 | 65 | 348 | 2.0 | 4.0 | 0.00 | 0.00 | 0.00 | 47 | 1012.1 |
| 20260506043706 | 65 | 304 | 0.0 | 2.0 | 0.00 | 0.00 | 0.00 | 48 | 1012.0 |
| 20260506043204 | 65 | 315 | 1.0 | 2.0 | 0.00 | 0.00 | 0.00 | 48 | 1012.1 |
| 20260506042703 | 65 | 235 | 0.0 | 2.0 | 0.00 | 0.00 | 0.00 | 48 | 1012.1 |
| 20260506042200 | 65 | 293 | 0.0 | 2.0 | 0.00 | 0.00 | 0.00 | 48 | 1011.8 |
| 20260506041653 | 65 | 309 | 0.0 | 3.0 | 0.00 | 0.00 | 0.00 | 48 | 1011.4 |
| 20260506041150 | 66 | 334 | 2.0 | 3.0 | 0.00 | 0.00 | 0.00 | 48 | 1011.6 |
| 20260506040647 | 66 | 348 | 2.0 | 3.0 | 0.00 | 0.00 | 0.00 | 48 | 1011.8 |
| 20260506040144 | 66 | 355 | 1.0 | 3.0 | 0.00 | 0.00 | 0.00 | 47 | 1011.8 |
| 20260506035641 | 66 | 357 | 2.0 | 3.0 | 0.00 | 0.00 | 0.00 | 46 | 1011.7 |
| 20260506035137 | 67 | 340 | 2.0 | 3.0 | 0.00 | 0.00 | 0.00 | 46 | 1011.4 |
| 20260506034634 | 68 | 355 | 2.0 | 4.0 | 0.00 | 0.00 | 0.00 | 45 | 1011.4 |
| 20260506034131 | 68 | 325 | 2.0 | 3.0 | 0.00 | 0.00 | 0.00 | 43 | 1011.0 |
| 20260506033628 | 69 | 343 | 1.0 | 3.0 | 0.00 | 0.00 | 0.00 | 42 | 1011.1 |
| 20260506033125 | 70 | 304 | 1.0 | 4.0 | 0.00 | 0.00 | 0.00 | 41 | 1010.9 |
| 20260506032623 | 71 | 281 | 2.0 | 2.0 | 0.00 | 0.00 | 0.00 | 39 | 1011.0 |
| 20260506032119 | 71 | 305 | 2.0 | 6.0 | 0.00 | 0.00 | 0.00 | 38 | 1010.7 |
| 20260506031617 | 71 | 325 | 2.0 | 4.0 | 0.00 | 0.00 | 0.00 | 38 | 1010.9 |
| 20260506031113 | 71 | 288 | 2.0 | 3.0 | 0.00 | 0.00 | 0.00 | 39 | 1010.8 |
| 20260506030612 | 71 | 285 | 2.0 | 3.0 | 0.00 | 0.00 | 0.00 | 38 | 1010.6 |
| 20260506030109 | 72 | 281 | 2.0 | 3.0 | 0.00 | 0.00 | 0.00 | 38 | 1010.6 |
| 20260506025606 | 72 | 325 | 2.0 | 3.0 | 0.00 | 0.00 | 0.00 | 37 | 1010.3 |
| 20260506025102 | 72 | 315 | 2.0 | 3.0 | 0.00 | 0.00 | 0.00 | 36 | 1010.5 |
| 20260506024600 | 72 | 258 | 3.0 | 4.0 | 0.00 | 0.00 | 0.00 | 36 | 1010.5 |
| 20260506024056 | 73 | 251 | 0.0 | 3.0 | 0.00 | 0.00 | 0.00 | 36 | 1010.4 |
| 20260506023552 | 74 | 304 | 2.0 | 3.0 | 0.00 | 0.00 | 0.00 | 34 | 1010.1 |
| 20260506023050 | 75 | 311 | 4.0 | 5.0 | 0.00 | 0.00 | 0.00 | 33 | 1010.4 |
| 20260506022547 | 75 | 307 | 2.0 | 4.0 | 0.00 | 0.00 | 0.00 | 33 | 1010.3 |
| 20260506022044 | 76 | 259 | 4.0 | 15.0 | 0.00 | 0.00 | 0.00 | 32 | 1010.2 |
| 20260506021542 | 76 | 247 | 4.0 | 4.0 | 0.00 | 0.00 | 0.00 | 32 | 1010.4 |
| 20260506021039 | 77 | 321 | 4.0 | 6.0 | 0.00 | 0.00 | 0.00 | 31 | 1010.2 |
| 20260506020536 | 77 | 282 | 3.0 | 5.0 | 0.00 | 0.00 | 0.00 | 31 | 1010.2 |
| 20260506020033 | 77 | 317 | 3.0 | 5.0 | 0.00 | 0.00 | 0.00 | 30 | 1010.0 |
| 20260506015531 | 77 | 239 | 2.0 | 9.0 | 0.00 | 0.00 | 0.00 | 29 | 1010.3 |
| 20260506015028 | 78 | 301 | 3.0 | 6.0 | 0.00 | 0.00 | 0.00 | 30 | 1010.1 |
| 20260506014525 | 78 | 253 | 6.0 | 7.0 | 0.00 | 0.00 | 0.00 | 31 | 1010.0 |
| 20260506014021 | 78 | 278 | 4.0 | 5.0 | 0.00 | 0.00 | 0.00 | 30 | 1010.1 |
| 20260506013519 | 78 | 337 | 2.0 | 6.0 | 0.00 | 0.00 | 0.00 | 30 | 1010.1 |
| 20260506013016 | 78 | 320 | 4.0 | 8.0 | 0.00 | 0.00 | 0.00 | 30 | 1009.7 |
| 20260506012512 | 79 | 316 | 2.0 | 9.0 | 0.00 | 0.00 | 0.00 | 29 | 1009.6 |
| 20260506012009 | 80 | 295 | 2.0 | 7.0 | 0.00 | 0.00 | 0.00 | 29 | 1010.0 |
| 20260506011506 | 80 | 282 | 1.0 | 14.0 | 0.00 | 0.00 | 0.00 | 27 | 1009.9 |
| 20260506011002 | 80 | 351 | 2.0 | 5.0 | 0.00 | 0.00 | 0.00 | 29 | 1009.6 |
| 20260506010502 | 80 | 310 | 2.0 | 7.0 | 0.00 | 0.00 | 0.00 | 29 | 1009.7 |
| 20260506005957 | 81 | 309 | 1.0 | 3.0 | 0.00 | 0.00 | 0.00 | 29 | 1009.9 |
| 20260506005455 | 81 | 271 | 3.0 | 5.0 | 0.00 | 0.00 | 0.00 | 28 | 1009.6 |
| 20260506004950 | 82 | 301 | 3.0 | 7.0 | 0.00 | 0.00 | 0.00 | 26 | 1009.4 |
| 20260506004449 | 83 | 282 | 3.0 | 10.0 | 0.00 | 0.00 | 0.00 | 25 | 1009.6 |
| 20260506003944 | 82 | 0 | 4.0 | 6.0 | 0.00 | 0.00 | 0.00 | 26 | 1009.6 |
| 20260506003441 | 84 | 304 | 3.0 | 9.0 | 0.00 | 0.00 | 0.00 | 25 | 1009.4 |
| 20260506002937 | 85 | 330 | 0.0 | 5.0 | 0.00 | 0.00 | 0.00 | 25 | 1009.6 |
| 20260506002433 | 86 | 2 | 1.0 | 4.0 | 0.00 | 0.00 | 0.00 | 25 | 1009.6 |
| 20260506001929 | 84 | 327 | 1.0 | 6.0 | 0.00 | 0.00 | 0.00 | 24 | 1009.4 |
| 20260506001426 | 84 | 226 | 4.0 | 7.0 | 0.00 | 0.00 | 0.00 | 25 | 1009.6 |
| 20260506000923 | 85 | 304 | 1.0 | 4.0 | 0.00 | 0.00 | 0.00 | 24 | 1009.7 |
| 20260506000423 | 84 | 338 | 3.0 | 6.0 | 0.00 | 0.00 | 0.00 | 24 | 1010.0 |
| 20260505235917 | 85 | 257 | 3.0 | 10.0 | 0.00 | 0.00 | 0.00 | 23 | 1009.9 |
| 20260505235416 | 84 | 56 | 0.0 | 2.0 | 0.00 | 0.00 | 0.00 | 24 | 1010.0 |
| 20260505234912 | 85 | 134 | 2.0 | 6.0 | 0.00 | 0.00 | 0.00 | 24 | 1010.1 |
| 20260505234410 | 86 | 71 | 1.0 | 3.0 | 0.00 | 0.00 | 0.00 | 24 | 1010.0 |
| 20260505233906 | 86 | 239 | 2.0 | 7.0 | 0.00 | 0.00 | 0.00 | 23 | 1010.0 |
| 20260505233404 | 86 | 299 | 3.0 | 4.0 | 0.00 | 0.00 | 0.00 | 26 | 1009.7 |
| 20260505232901 | 86 | 71 | 1.0 | 5.0 | 0.00 | 0.00 | 0.00 | 25 | 1010.0 |
| 20260505232359 | 86 | 320 | 0.0 | 5.0 | 0.00 | 0.00 | 0.00 | 23 | 1010.1 |
| 20260505231855 | 86 | 85 | 2.0 | 7.0 | 0.00 | 0.00 | 0.00 | 24 | 1010.0 |
| 20260505231353 | 87 | 321 | 2.0 | 5.0 | 0.00 | 0.00 | 0.00 | 24 | 1009.9 |
| 20260505230851 | 87 | 265 | 2.0 | 4.0 | 0.00 | 0.00 | 0.00 | 23 | 1010.0 |
| 20260505230348 | 85 | 281 | 2.0 | 7.0 | 0.00 | 0.00 | 0.00 | 25 | 1010.2 |
| 20260505225845 | 83 | 69 | 2.0 | 6.0 | 0.00 | 0.00 | 0.00 | 24 | 1010.1 |
| 20260505225342 | 86 | 188 | 3.0 | 7.0 | 0.00 | 0.00 | 0.00 | 23 | 1010.2 |
| 20260505224837 | 85 | 214 | 1.0 | 5.0 | 0.00 | 0.00 | 0.00 | 23 | 1010.2 |
| 20260505224335 | 86 | 241 | 2.0 | 7.0 | 0.00 | 0.00 | 0.00 | 23 | 1010.4 |
| 20260505223832 | 85 | 309 | 0.0 | 3.0 | 0.00 | 0.00 | 0.00 | 23 | 1010.3 |
| 20260505223329 | 86 | 231 | 4.0 | 7.0 | 0.00 | 0.00 | 0.00 | 23 | 1010.4 |
| 20260505222824 | 86 | 308 | 3.0 | 4.0 | 0.00 | 0.00 | 0.00 | 24 | 1010.2 |
| 20260505222321 | 85 | 278 | 2.0 | 5.0 | 0.00 | 0.00 | 0.00 | 25 | 1010.6 |
| 20260505221818 | 85 | 196 | 3.0 | 7.0 | 0.00 | 0.00 | 0.00 | 24 | 1010.6 |
| 20260505221315 | 83 | 225 | 1.0 | 3.0 | 0.00 | 0.00 | 0.00 | 23 | 1010.4 |
| 20260505220812 | 81 | 298 | 2.0 | 2.0 | 0.00 | 0.00 | 0.00 | 26 | 1010.6 |
| 20260505220309 | 83 | 1 | 2.0 | 4.0 | 0.00 | 0.00 | 0.00 | 27 | 1010.7 |
| 20260505215807 | 86 | 344 | 2.0 | 4.0 | 0.00 | 0.00 | 0.00 | 27 | 1010.7 |
| 20260505215305 | 84 | 310 | 2.0 | 2.0 | 0.00 | 0.00 | 0.00 | 27 | 1010.8 |
| 20260505214802 | 81 | 340 | 1.0 | 3.0 | 0.00 | 0.00 | 0.00 | 28 | 1010.7 |
| 20260505214259 | 82 | 353 | 1.0 | 3.0 | 0.00 | 0.00 | 0.00 | 24 | 1011.0 |
| 20260505213756 | 82 | 148 | 3.0 | 11.0 | 0.00 | 0.00 | 0.00 | 26 | 1010.8 |
| 20260505213254 | 84 | 22 | 4.0 | 7.0 | 0.00 | 0.00 | 0.00 | 23 | 1010.8 |
| 20260505212749 | 86 | 160 | 3.0 | 4.0 | 0.00 | 0.00 | 0.00 | 24 | 1011.0 |
| 20260505212247 | 84 | 2 | 2.0 | 4.0 | 0.00 | 0.00 | 0.00 | 25 | 1011.0 |
| 20260505211744 | 84 | 0 | 3.0 | 3.0 | 0.00 | 0.00 | 0.00 | 26 | 1011.0 |
| 20260505211242 | 85 | 323 | 2.0 | 9.0 | 0.00 | 0.00 | 0.00 | 24 | 1011.0 |
| 20260505210737 | 85 | 147 | 2.0 | 3.0 | 0.00 | 0.00 | 0.00 | 23 | 1011.1 |
| 20260505210234 | 84 | 253 | 4.0 | 6.0 | 0.00 | 0.00 | 0.00 | 23 | 1010.9 |
| 20260505205732 | 85 | 284 | 2.0 | 4.0 | 0.00 | 0.00 | 0.00 | 25 | 1011.1 |
| 20260505205230 | 83 | 197 | 1.0 | 4.0 | 0.00 | 0.00 | 0.00 | 25 | 1011.3 |
| 20260505204726 | 84 | 236 | 3.0 | 4.0 | 0.00 | 0.00 | 0.00 | 24 | 1011.3 |
| 20260505204224 | 84 | 260 | 3.0 | 6.0 | 0.00 | 0.00 | 0.00 | 23 | 1011.6 |
| 20260505203721 | 84 | 162 | 1.0 | 4.0 | 0.00 | 0.00 | 0.00 | 21 | 1011.6 |
| 20260505203218 | 84 | 209 | 2.0 | 5.0 | 0.00 | 0.00 | 0.00 | 23 | 1011.3 |
| 20260505202713 | 84 | 331 | 1.0 | 4.0 | 0.00 | 0.00 | 0.00 | 22 | 1011.3 |
| 20260505202210 | 83 | 206 | 2.0 | 4.0 | 0.00 | 0.00 | 0.00 | 25 | 1011.3 |
| 20260505201706 | 84 | 209 | 0.0 | 4.0 | 0.00 | 0.00 | 0.00 | 23 | 1011.3 |
| 20260505201205 | 83 | 19 | 3.0 | 4.0 | 0.00 | 0.00 | 0.00 | 25 | 1011.9 |
| 20260505200702 | 81 | 103 | 0.0 | 7.0 | 0.00 | 0.00 | 0.00 | 23 | 1011.7 |
| 20260505200159 | 83 | 310 | 2.0 | 9.0 | 0.00 | 0.00 | 0.00 | 23 | 1011.8 |
| 20260505195655 | 83 | 276 | 1.0 | 6.0 | 0.00 | 0.00 | 0.00 | 24 | 1011.8 |
| 20260505195152 | 84 | 212 | 3.0 | 4.0 | 0.00 | 0.00 | 0.00 | 21 | 1011.8 |
| 20260505194649 | 83 | 344 | 2.0 | 5.0 | 0.00 | 0.00 | 0.00 | 20 | 1012.1 |
| 20260505194145 | 84 | 348 | 1.0 | 4.0 | 0.00 | 0.00 | 0.00 | 23 | 1011.9 |
| 20260505193642 | 83 | 185 | 0.0 | 4.0 | 0.00 | 0.00 | 0.00 | 24 | 1012.1 |
| 20260505193139 | 82 | 148 | 2.0 | 6.0 | 0.00 | 0.00 | 0.00 | 24 | 1012.0 |
| 20260505192638 | 83 | 88 | 2.0 | 5.0 | 0.00 | 0.00 | 0.00 | 22 | 1011.9 |
| 20260505192135 | 83 | 341 | 3.0 | 6.0 | 0.00 | 0.00 | 0.00 | 23 | 1011.9 |
| 20260505191633 | 82 | 285 | 4.0 | 6.0 | 0.00 | 0.00 | 0.00 | 23 | 1011.9 |
| 20260505191131 | 82 | 315 | 2.0 | 6.0 | 0.00 | 0.00 | 0.00 | 22 | 1012.2 |
| 20260505190626 | 82 | 352 | 1.0 | 5.0 | 0.00 | 0.00 | 0.00 | 26 | 1012.2 |
| 20260505190121 | 84 | 326 | 2.0 | 4.0 | 0.00 | 0.00 | 0.00 | 25 | 1012.3 |
| 20260505185619 | 81 | 242 | 7.0 | 7.0 | 0.00 | 0.00 | 0.00 | 25 | 1012.2 |
| 20260505185115 | 81 | 310 | 3.0 | 7.0 | 0.00 | 0.00 | 0.00 | 25 | 1012.4 |
| 20260505184611 | 81 | 146 | 2.0 | 5.0 | 0.00 | 0.00 | 0.00 | 24 | 1012.0 |
| 20260505184108 | 82 | 255 | 2.0 | 5.0 | 0.00 | 0.00 | 0.00 | 25 | 1012.2 |
| 20260505183605 | 80 | 37 | 0.0 | 3.0 | 0.00 | 0.00 | 0.00 | 32 | 1012.3 |
| 20260505183103 | 79 | 102 | 2.0 | 5.0 | 0.00 | 0.00 | 0.00 | 35 | 1012.1 |
| 20260505182558 | 78 | 137 | 3.0 | 7.0 | 0.00 | 0.00 | 0.00 | 33 | 1012.3 |
| 20260505182055 | 78 | 119 | 2.0 | 4.0 | 0.00 | 0.00 | 0.00 | 33 | 1012.4 |
| 20260505181552 | 77 | 78 | 2.0 | 5.0 | 0.00 | 0.00 | 0.00 | 35 | 1012.5 |
| 20260505181050 | 78 | 148 | 3.0 | 4.0 | 0.00 | 0.00 | 0.00 | 34 | 1012.4 |
| 20260505180545 | 78 | 128 | 3.0 | 7.0 | 0.00 | 0.00 | 0.00 | 37 | 1012.6 |
| 20260505180043 | 77 | 119 | 3.0 | 5.0 | 0.00 | 0.00 | 0.00 | 38 | 1012.4 |
| 20260505175538 | 77 | 131 | 2.0 | 6.0 | 0.00 | 0.00 | 0.00 | 35 | 1012.5 |
| 20260505175035 | 77 | 107 | 2.0 | 5.0 | 0.00 | 0.00 | 0.00 | 36 | 1012.5 |
| 20260505174532 | 76 | 103 | 2.0 | 4.0 | 0.00 | 0.00 | 0.00 | 39 | 1012.5 |
| 20260505174028 | 75 | 131 | 2.0 | 5.0 | 0.00 | 0.00 | 0.00 | 40 | 1012.6 |
| 20260505173525 | 75 | 160 | 3.0 | 7.0 | 0.00 | 0.00 | 0.00 | 38 | 1012.7 |
| 20260505173021 | 75 | 120 | 2.0 | 5.0 | 0.00 | 0.00 | 0.00 | 40 | 1012.7 |
| 20260505172519 | 75 | 135 | 2.0 | 4.0 | 0.00 | 0.00 | 0.00 | 39 | 1012.5 |
| 20260505172014 | 74 | 126 | 2.0 | 5.0 | 0.00 | 0.00 | 0.00 | 39 | 1012.9 |
| 20260505171505 | 73 | 118 | 4.0 | 6.0 | 0.00 | 0.00 | 0.00 | 41 | 1012.6 |
| 20260505171002 | 74 | 202 | 2.0 | 3.0 | 0.00 | 0.00 | 0.00 | 36 | 1012.6 |
| 20260505170458 | 73 | 156 | 2.0 | 3.0 | 0.00 | 0.00 | 0.00 | 40 | 1012.6 |
| 20260505165953 | 73 | 173 | 1.0 | 4.0 | 0.00 | 0.00 | 0.00 | 37 | 1012.8 |
| 20260505165444 | 73 | 160 | 0.0 | 2.0 | 0.00 | 0.00 | 0.00 | 40 | 1012.9 |